Time,TemperatureF,DewpointF,PressureIn,WindDirection,WindDirectionDegrees,WindSpeedMPH,WindSpeedGustMPH,Humidity,HourlyPrecipIn,Conditions,Clouds,dailyrainin,SoftwareType,DateUTC
2013-08-22 00:13:00,73.0,72.4,29.88,SSW,202,1.7,-999.0,98,-99.99,,,0.00,Acu-Link.com,2013-08-22 04:13:00,
2013-08-22 00:28:00,73.0,72.4,29.88,SSW,202,0.0,-999.0,98,-99.99,,,0.00,Acu-Link.com,2013-08-22 04:28:00,
2013-08-22 00:44:00,73.0,72.4,29.88,SW,225,0.0,-999.0,98,-99.99,,,0.00,Acu-Link.com,2013-08-22 04:44:00,
2013-08-22 00:59:00,73.0,72.4,29.88,WSW,247,0.0,-999.0,98,-99.99,,,0.00,Acu-Link.com,2013-08-22 04:59:00,
2013-08-22 01:14:00,72.9,72.3,29.88,SSW,202,1.7,-999.0,98,-99.99,,,0.00,Acu-Link.com,2013-08-22 05:14:00,
2013-08-22 01:29:00,72.5,71.9,29.88,SSW,202,2.7,-999.0,98,-99.99,,,0.00,Acu-Link.com,2013-08-22 05:29:00,
2013-08-22 01:44:00,72.5,71.9,29.88,SSW,202,0.0,-999.0,98,-99.99,,,0.00,Acu-Link.com,2013-08-22 05:44:00,
2013-08-22 01:59:00,72.5,71.9,29.88,West,270,0.0,-999.0,98,-99.99,,,0.00,Acu-Link.com,2013-08-22 05:59:00,
2013-08-22 02:14:00,72.3,71.7,29.89,NNW,337,0.0,-999.0,98,-99.99,,,0.00,Acu-Link.com,2013-08-22 06:14:00,
2013-08-22 02:30:00,72.1,71.5,29.88,North,0,0.0,-999.0,98,-99.99,,,0.00,Acu-Link.com,2013-08-22 06:30:00,
2013-08-22 02:45:00,72.0,71.4,29.88,North,0,1.7,-999.0,98,-99.99,,,0.00,Acu-Link.com,2013-08-22 06:45:00,
2013-08-22 03:00:00,72.0,71.4,29.87,NNE,22,0.0,-999.0,98,-99.99,,,0.00,Acu-Link.com,2013-08-22 07:00:00,
2013-08-22 03:15:00,72.0,71.4,29.88,NNE,22,0.0,-999.0,98,-99.99,,,0.00,Acu-Link.com,2013-08-22 07:15:00,
2013-08-22 03:30:00,72.0,71.4,29.87,NE,45,0.0,-999.0,98,-99.99,,,0.00,Acu-Link.com,2013-08-22 07:30:00,
2013-08-22 03:45:00,72.0,71.4,29.87,SSW,202,0.0,-999.0,98,-99.99,,,0.00,Acu-Link.com,2013-08-22 07:45:00,
2013-08-22 04:00:00,72.0,71.4,29.87,East,90,2.2,-999.0,98,-99.99,,,0.00,Acu-Link.com,2013-08-22 08:00:00,
2013-08-22 04:16:00,72.0,71.4,29.87,ESE,112,1.1,-999.0,98,-99.99,,,0.00,Acu-Link.com,2013-08-22 08:16:00,
2013-08-22 04:31:00,72.0,71.4,29.87,SW,225,0.0,-999.0,98,-99.99,,,0.00,Acu-Link.com,2013-08-22 08:31:00,
2013-08-22 04:46:00,72.0,71.4,29.86,SW,225,0.0,-999.0,98,-99.99,,,0.00,Acu-Link.com,2013-08-22 08:46:00,
2013-08-22 05:01:00,72.0,71.4,29.87,WNW,292,0.0,-999.0,98,-99.99,,,0.00,Acu-Link.com,2013-08-22 09:01:00,
2013-08-22 05:16:00,72.0,71.4,29.86,SSW,202,0.0,-999.0,98,-99.99,,,0.00,Acu-Link.com,2013-08-22 09:16:00,
2013-08-22 05:31:00,72.0,71.4,29.87,NNE,22,0.0,-999.0,98,-99.99,,,0.00,Acu-Link.com,2013-08-22 09:31:00,
2013-08-22 05:46:00,72.0,71.4,29.87,North,0,0.0,-999.0,98,-99.99,,,0.00,Acu-Link.com,2013-08-22 09:46:00,
2013-08-22 06:01:00,72.0,71.4,29.87,North,0,0.0,-999.0,98,-99.99,,,0.00,Acu-Link.com,2013-08-22 10:01:00,
2013-08-22 06:17:00,72.1,71.5,29.88,NE,45,0.0,-999.0,98,-99.99,,,0.00,Acu-Link.com,2013-08-22 10:17:00,
2013-08-22 06:32:00,72.1,71.5,29.88,North,0,0.0,-999.0,98,-99.99,,,0.00,Acu-Link.com,2013-08-22 10:32:00,
2013-08-22 06:47:00,72.3,71.7,29.88,NNW,337,0.0,-999.0,98,-99.99,,,0.00,Acu-Link.com,2013-08-22 10:47:00,
2013-08-22 08:36:00,72.3,71.7,29.90,SSW,202,0.0,-999.0,98,-99.99,,,0.00,Acu-Link.com,2013-08-22 12:36:00,
2013-08-22 08:51:00,72.9,72.3,29.91,South,180,0.0,-999.0,98,-99.99,,,0.00,Acu-Link.com,2013-08-22 12:51:00,
2013-08-22 09:06:00,73.4,72.8,29.90,SSE,157,0.0,-999.0,98,-99.99,,,0.00,Acu-Link.com,2013-08-22 13:06:00,
2013-08-22 09:21:00,73.8,73.2,29.90,East,90,0.0,-999.0,98,-99.99,,,0.00,Acu-Link.com,2013-08-22 13:21:00,
2013-08-22 09:36:00,74.3,73.7,29.90,East,90,1.7,-999.0,98,-99.99,,,0.00,Acu-Link.com,2013-08-22 13:36:00,
2013-08-22 09:51:00,75.4,74.8,29.89,SSE,157,2.7,-999.0,98,-99.99,,,0.00,Acu-Link.com,2013-08-22 13:51:00,
2013-08-22 10:07:00,75.9,75.3,29.89,East,90,0.0,-999.0,98,-99.99,,,0.00,Acu-Link.com,2013-08-22 14:07:00,
2013-08-22 10:22:00,75.9,75.3,29.89,East,90,0.0,-999.0,98,-99.99,,,0.00,Acu-Link.com,2013-08-22 14:22:00,
2013-08-22 10:37:00,77.9,77.3,29.88,NNE,22,2.7,-999.0,98,-99.99,,,0.00,Acu-Link.com,2013-08-22 14:37:00,
2013-08-22 10:52:00,78.4,77.8,29.88,East,90,0.0,-999.0,98,-99.99,,,0.00,Acu-Link.com,2013-08-22 14:52:00,
2013-08-22 11:07:00,79.5,78.9,29.89,NNE,22,1.7,-999.0,98,-99.99,,,0.00,Acu-Link.com,2013-08-22 15:07:00,
2013-08-22 11:22:00,79.9,79.0,29.89,East,90,3.7,-999.0,97,-99.99,,,0.01,Acu-Link.com,2013-08-22 15:22:00,
2013-08-22 11:37:00,79.9,79.0,29.89,ESE,112,2.7,-999.0,97,-99.99,,,0.01,Acu-Link.com,2013-08-22 15:37:00,
2013-08-22 11:52:00,81.3,79.4,29.87,ENE,67,1.7,-999.0,94,-99.99,,,0.01,Acu-Link.com,2013-08-22 15:52:00,
2013-08-22 12:07:00,83.7,79.8,29.88,NW,315,0.0,-999.0,88,-99.99,,,0.01,Acu-Link.com,2013-08-22 16:07:00,
2013-08-22 12:23:00,82.8,79.2,29.87,NNW,337,0.0,-999.0,89,-99.99,,,0.01,Acu-Link.com,2013-08-22 16:23:00,
2013-08-22 12:38:00,83.1,79.9,29.87,East,90,2.7,-999.0,90,-99.99,,,0.01,Acu-Link.com,2013-08-22 16:38:00,
2013-08-22 12:53:00,84.4,80.4,29.85,NNE,22,4.7,-999.0,88,-99.99,,,0.01,Acu-Link.com,2013-08-22 16:53:00,
2013-08-22 13:08:00,85.8,80.4,29.85,NW,315,0.0,-999.0,84,-99.99,,,0.01,Acu-Link.com,2013-08-22 17:08:00,
2013-08-22 13:23:00,86.0,79.1,29.84,SSW,202,1.7,-999.0,80,-99.99,,,0.01,Acu-Link.com,2013-08-22 17:23:00,
2013-08-22 13:38:00,83.7,79.4,29.84,North,0,2.2,-999.0,87,-99.99,,,0.01,Acu-Link.com,2013-08-22 17:38:00,
2013-08-22 13:53:00,80.8,78.9,29.83,NNE,22,3.2,-999.0,94,-99.99,,,0.01,Acu-Link.com,2013-08-22 17:53:00,
2013-08-22 14:08:00,80.2,79.6,29.84,ESE,112,2.7,-999.0,98,-99.99,,,0.06,Acu-Link.com,2013-08-22 18:08:00,
2013-08-22 14:23:00,79.9,79.3,29.83,North,0,3.7,-999.0,98,-99.99,,,0.23,Acu-Link.com,2013-08-22 18:23:00,
2013-08-22 14:39:00,82.6,81.0,29.83,NNW,337,0.0,-999.0,95,-99.99,,,0.23,Acu-Link.com,2013-08-22 18:39:00,
2013-08-22 14:54:00,83.5,79.9,29.81,East,90,1.7,-999.0,89,-99.99,,,0.23,Acu-Link.com,2013-08-22 18:54:00,
2013-08-22 15:09:00,78.6,77.0,29.82,SSE,157,5.8,-999.0,95,-99.99,,,0.23,Acu-Link.com,2013-08-22 19:09:00,
2013-08-22 15:24:00,77.9,77.0,29.81,SSE,157,1.7,-999.0,97,-99.99,,,0.23,Acu-Link.com,2013-08-22 19:24:00,
2013-08-22 15:39:00,78.6,77.0,29.80,NW,315,0.0,-999.0,95,-99.99,,,0.23,Acu-Link.com,2013-08-22 19:39:00,
2013-08-22 15:54:00,78.6,76.7,29.82,NNE,22,5.3,-999.0,94,-99.99,,,0.23,Acu-Link.com,2013-08-22 19:54:00,
2013-08-22 16:09:00,76.1,74.9,29.82,East,90,4.2,-999.0,96,-99.99,,,0.23,Acu-Link.com,2013-08-22 20:09:00,
2013-08-22 16:24:00,74.8,74.2,29.81,NE,45,1.7,-999.0,98,-99.99,,,0.23,Acu-Link.com,2013-08-22 20:24:00,
2013-08-22 16:39:00,75.2,74.6,29.81,WNW,292,0.0,-999.0,98,-99.99,,,0.23,Acu-Link.com,2013-08-22 20:39:00,
2013-08-22 16:54:00,75.4,74.8,29.79,South,180,2.2,-999.0,98,-99.99,,,0.23,Acu-Link.com,2013-08-22 20:54:00,
2013-08-22 17:10:00,76.1,75.5,29.77,SSE,157,0.0,-999.0,98,-99.99,,,0.23,Acu-Link.com,2013-08-22 21:10:00,
2013-08-22 17:25:00,77.7,77.1,29.78,NNW,337,1.1,-999.0,98,-99.99,,,0.23,Acu-Link.com,2013-08-22 21:25:00,
2013-08-22 17:40:00,79.3,78.4,29.78,SSW,202,1.1,-999.0,97,-99.99,,,0.23,Acu-Link.com,2013-08-22 21:40:00,
2013-08-22 17:55:00,80.2,77.0,29.79,North,0,0.0,-999.0,90,-99.99,,,0.23,Acu-Link.com,2013-08-22 21:55:00,
2013-08-22 18:10:00,80.1,76.2,29.78,East,90,1.1,-999.0,88,-99.99,,,0.23,Acu-Link.com,2013-08-22 22:10:00,
2013-08-22 18:25:00,82.4,77.8,29.78,NNW,337,0.0,-999.0,86,-99.99,,,0.23,Acu-Link.com,2013-08-22 22:25:00,
2013-08-22 18:40:00,82.6,78.0,29.78,NNE,22,0.0,-999.0,86,-99.99,,,0.23,Acu-Link.com,2013-08-22 22:40:00,
2013-08-22 18:55:00,82.0,78.1,29.79,South,180,0.0,-999.0,88,-99.99,,,0.23,Acu-Link.com,2013-08-22 22:55:00,
2013-08-22 19:10:00,82.4,78.8,29.77,NW,315,0.0,-999.0,89,-99.99,,,0.23,Acu-Link.com,2013-08-22 23:10:00,
2013-08-22 19:26:00,79.7,78.1,29.78,West,270,0.0,-999.0,95,-99.99,,,0.23,Acu-Link.com,2013-08-22 23:26:00,
2013-08-22 19:41:00,78.4,77.5,29.78,NW,315,0.0,-999.0,97,-99.99,,,0.23,Acu-Link.com,2013-08-22 23:41:00,
2013-08-22 19:56:00,77.7,77.1,29.79,North,0,0.0,-999.0,98,-99.99,,,0.23,Acu-Link.com,2013-08-22 23:56:00,
2013-08-22 20:11:00,76.5,75.9,29.77,NW,315,0.0,-999.0,98,-99.99,,,0.23,Acu-Link.com,2013-08-23 00:11:00,
2013-08-22 20:26:00,75.6,75.0,29.78,South,180,0.0,-999.0,98,-99.99,,,0.23,Acu-Link.com,2013-08-23 00:26:00,
2013-08-22 20:41:00,74.8,74.2,29.78,West,270,0.0,-999.0,98,-99.99,,,0.23,Acu-Link.com,2013-08-23 00:41:00,
2013-08-22 20:56:00,74.3,73.7,29.78,West,270,0.0,-999.0,98,-99.99,,,0.23,Acu-Link.com,2013-08-23 00:56:00,
2013-08-22 21:11:00,73.8,73.2,29.79,West,270,0.0,-999.0,98,-99.99,,,0.23,Acu-Link.com,2013-08-23 01:11:00,
2013-08-22 21:26:00,73.4,72.8,29.79,West,270,0.0,-999.0,98,-99.99,,,0.23,Acu-Link.com,2013-08-23 01:26:00,
2013-08-22 21:42:00,73.2,72.6,29.79,WNW,292,0.0,-999.0,98,-99.99,,,0.23,Acu-Link.com,2013-08-23 01:42:00,
2013-08-22 21:57:00,73.0,72.4,29.79,NW,315,0.0,-999.0,98,-99.99,,,0.23,Acu-Link.com,2013-08-23 01:57:00,
2013-08-22 22:12:00,73.0,72.4,29.80,SSW,202,0.0,-999.0,98,-99.99,,,0.23,Acu-Link.com,2013-08-23 02:12:00,
2013-08-22 22:27:00,72.5,71.9,29.80,North,0,0.0,-999.0,98,-99.99,,,0.23,Acu-Link.com,2013-08-23 02:27:00,
2013-08-22 22:42:00,72.0,71.4,29.80,SSW,202,0.0,-999.0,98,-99.99,,,0.23,Acu-Link.com,2013-08-23 02:42:00,
2013-08-22 22:57:00,71.6,71.0,29.81,NNW,337,0.0,-999.0,98,-99.99,,,0.23,Acu-Link.com,2013-08-23 02:57:00,
2013-08-22 23:13:00,71.4,70.8,29.81,NNE,22,0.0,-999.0,98,-99.99,,,0.23,Acu-Link.com,2013-08-23 03:13:00,
2013-08-22 23:28:00,71.4,70.8,29.80,South,180,0.0,-999.0,98,-99.99,,,0.23,Acu-Link.com,2013-08-23 03:28:00,
2013-08-22 23:43:00,71.2,70.6,29.81,NE,45,0.0,-999.0,98,-99.99,,,0.23,Acu-Link.com,2013-08-23 03:43:00,
2013-08-22 23:58:00,70.9,70.3,29.81,SW,225,0.0,-999.0,98,-99.99,,,0.23,Acu-Link.com,2013-08-23 03:58:00,